Location: Vinland
(47.7731°N, 122.6974°W)
Time: 19:26:09
(UTC+00:00)

Vanguard 1 Rocket - Pass Details

Date: 25 March 2023
Orbit: 654 x 4221 km, 34.3° (Epoch: 29 May)

Event Time Altitude Azimuth Distance (km) Brightness Sun altitude
Rises 06:00:06 0° 220° (SW) 8,450 12.3 -32.2°
Reaches altitude 10° 06:07:00 10° 214° (SSW) 7,290 11.8 -33.0°
Enters shadow 06:20:04 30° 188° (S) 5,113 10.7 -34.3°
